Barrow, AK

9:04 AM AKDT on June 19, 2018 (GMT -0800)
Wiley Post-Will Rogers Memorial

Weather History for PABR - January, 2017

Change the Weather History Date:

Sunday, January 29, 2017

  Actual Average Record
Temperature  
Mean Temperature -2 °F -14 °F  
Max Temperature 4 °F -8 °F 35 °F (1963)
Min Temperature -8 °F -20 °F -48 °F (1984)
Degree Days  
Heating Degree Days 67 79  
Month to date heating degree days 1920 2271  
Since 1 July heating degree days 8879 10480  
Cooling Degree Days 0 0  
Month to date cooling degree days 0 0  
Year to date cooling degree days 0 0  
Moisture  
Dew Point -5 °F    
Average Humidity 78    
Maximum Humidity 84    
Minimum Humidity 72    
Precipitation  
Precipitation T in 0.00 in 0.16 in (1963)
Month to date precipitation 0.47 0.12  
Year to date precipitation 0.47 0.12  
Snow  
Snow T in 0.10 in 1.60 in (1924)
Month to date snowfall 4.7 2.4  
Since 1 July snowfall 22.0 26.2  
Snow Depth 6.00 in    
Sea Level Pressure  
Sea Level Pressure 29.71 in    
Wind  
Wind Speed 11 mph (SE)    
Max Wind Speed 21 mph    
Max Gust Speed -    
Visibility 7 miles    
Events Snow    
T = Trace of Precipitation, MM = Missing Value Source: NWS Daily Summary

Daily Weather History Graph

Daily Weather History Graph

Search for Another Location

Airport or City:

Astronomy

Jan. 29, 2017 Rise Set
Actual Time 11:54 AM AKST 3:27 PM AKST
Civil Twilight 10:08 AM AKST 5:13 PM AKST
Nautical Twilight 8:41 AM AKST 6:40 PM AKST
Astronomical Twilight 7:25 AM AKST 7:57 PM AKST
Moon 11:22 AM AKST (1/29) 7:26 PM AKST (1/29)
Length of Visible Light 7h 05m
Length of Day
3h 33m
Waxing Crescent, 4% of the Moon is Illuminated
Jan 29
Waxing Crescent
Feb 3
First Quarter
Feb 10
Full
Feb 18
Last Quarter
Feb 26
New

Hourly Weather History & Observations

Time (AKST) Temp. Windchill Dew Point Humidity Pressure Visibility Wind Dir Wind Speed Gust Speed Precip Events Conditions
12:39 AM 3.9 °F -12.2 °F -0.9 °F 80% 29.58 in 2.5 mi SE 11.5 mph - 0.00 in Snow Light Snow
12:53 AM 3.9 °F -12.2 °F -0.9 °F 80% 29.60 in 2.0 mi ESE 11.5 mph - 0.00 in Snow Light Snow
1:24 AM 3.0 °F -11.5 °F -0.9 °F 84% 29.60 in 5.0 mi ESE 9.2 mph - 0.00 in Snow Light Snow
1:45 AM 3.9 °F -11.3 °F -0.9 °F 80% 29.60 in 1.8 mi ESE 10.4 mph - 0.00 in Snow Light Snow
1:53 AM 3.9 °F -10.4 °F -0.9 °F 80% 29.61 in 1.2 mi ESE 9.2 mph - 0.00 in Snow Light Snow
2:15 AM 3.9 °F -11.3 °F -0.0 °F 84% 29.60 in 0.8 mi ESE 10.4 mph - 0.00 in Snow Light Snow
2:33 AM 3.9 °F -11.3 °F -0.0 °F 84% 29.60 in 1.0 mi ESE 10.4 mph - 0.00 in Snow Light Snow
2:42 AM 3.9 °F -10.4 °F -0.0 °F 84% 29.61 in 0.8 mi ESE 9.2 mph - 0.00 in Snow Light Snow
2:53 AM 3.9 °F -10.4 °F -0.0 °F 84% 29.62 in 0.8 mi SE 9.2 mph - 0.00 in   Mist
3:12 AM 3.9 °F -11.3 °F -0.0 °F 84% 29.61 in 1.8 mi SE 10.4 mph - N/A   Overcast
3:16 AM 3.9 °F -11.3 °F -0.0 °F 84% 29.62 in 3.0 mi SE 10.4 mph - N/A   Overcast
3:53 AM 3.9 °F -10.4 °F -0.9 °F 80% 29.63 in 7.0 mi SSE 9.2 mph - N/A   Overcast
4:09 AM 3.0 °F -11.5 °F -0.9 °F 84% 29.63 in 9.0 mi SSE 9.2 mph - N/A   Overcast
4:53 AM 1.9 °F -12.9 °F -2.9 °F 80% 29.64 in 10.0 mi ESE 9.2 mph - N/A   Overcast
5:53 AM -0.0 °F -13.0 °F -5.1 °F 79% 29.66 in 10.0 mi ESE 6.9 mph - N/A   Overcast
6:53 AM -2.9 °F -17.7 °F -9.0 °F 75% 29.69 in 10.0 mi SSE 8.1 mph - N/A   Overcast
7:08 AM -4.0 °F -17.8 °F -9.9 °F 76% 29.68 in 10.0 mi SSE 6.9 mph - N/A   Scattered Clouds
7:53 AM -6.0 °F -20.1 °F -11.9 °F 75% 29.70 in 10.0 mi SE 6.9 mph - N/A   Clear
8:53 AM -6.0 °F -21.5 °F -11.9 °F 75% 29.72 in 10.0 mi SSE 8.1 mph - N/A   Mostly Cloudy
9:53 AM -2.9 °F -16.5 °F -9.0 °F 75% 29.73 in 10.0 mi ESE 6.9 mph - N/A   Overcast
10:53 AM -2.0 °F -17.7 °F -8.0 °F 76% 29.74 in 10.0 mi ESE 9.2 mph - N/A   Overcast
11:53 AM -2.9 °F -20.8 °F -9.0 °F 75% 29.75 in 10.0 mi SE 11.5 mph - N/A   Scattered Clouds
12:53 PM -4.0 °F -17.8 °F -9.9 °F 76% 29.77 in 10.0 mi SE 6.9 mph - N/A   Clear
1:53 PM -6.0 °F -25.5 °F -11.9 °F 75% 29.78 in 10.0 mi SE 12.7 mph - N/A   Clear
2:53 PM -5.1 °F -21.5 °F -11.0 °F 76% 29.79 in 10.0 mi ESE 9.2 mph - N/A   Clear
3:53 PM -7.1 °F -27.6 °F -13.0 °F 75% 29.80 in 10.0 mi ESE 13.8 mph - N/A   Scattered Clouds
4:53 PM -6.0 °F -23.6 °F -11.9 °F 75% 29.81 in 10.0 mi ESE 10.4 mph - N/A   Partly Cloudy
5:53 PM -6.0 °F -20.1 °F -11.9 °F 75% 29.82 in 10.0 mi SE 6.9 mph - N/A   Clear
6:53 PM -0.9 °F -21.9 °F -8.0 °F 72% 29.82 in 10.0 mi SSE 17.3 mph - N/A   Clear
7:53 PM 1.9 °F -19.2 °F -4.0 °F 76% 29.84 in 10.0 mi SSE 19.6 mph - N/A   Clear
8:53 PM 1.9 °F -19.2 °F -4.0 °F 76% 29.85 in 10.0 mi SSE 19.6 mph - N/A   Clear
9:53 PM 1.9 °F -18.1 °F -5.1 °F 72% 29.86 in 10.0 mi SSE 17.3 mph - N/A   Clear
10:53 PM 3.9 °F -16.6 °F -2.9 °F 73% 29.88 in 10.0 mi SSE 19.6 mph - N/A   Clear
11:53 PM 3.0 °F -18.3 °F -2.9 °F 76% 29.88 in 10.0 mi SSE 20.7 mph - N/A   Clear